weather.gov     
National Weather Service

Regional Weather Roundup
NWS Homepage
This page is being discontinued on March 12, 2014.
The same data is available at this site. Please update your bookmarks.
Thank you, and we apologize for the inconvenience.
Please send an email to SR-SRH.Webmaster@noaa.gov with any concerns.


Current Version
Previous Version:    01  02  03  04  05  06  07  08  09  10  11  12  13  14  15  16  17  18  19  20  21  22  23  24  25  26  27  28  29  30  
   31  32  33  34  35  36  37  38  39  40  41  42  43  44  45  46  47  48  49  50  51  52  53  54  55  56  57  58  59  60  
[Printable]
786
ASCA44 KEWX 182320
RWRMX

LATIN AMERICA AND CARIBBEAN REGIONAL WEATHER ROUNDUP
NATIONAL WEATHER SERVICE AUSTIN/SAN ANTONIO TX
600 PM CDT THU SEP 18 2014

NOTE: "FAIR" INDICATED FEW OR NO CLOUDS BELOW 12,000 FEET WITH NO
SIGNIFICANT WEATHER AND/OR OBSTRUCTIONS TO VISIBILITY.

BAJA CALIFORNIA

CITY           SKY/WX    TMP DP  RH WIND       PRES   REMARKS
LORETO         MOSUNNY   90  72  55 CALM      29.70F HX  96
LA PAZ         MOSUNNY   90  68  48 SW7       29.76  HX  93
MEXICALI       SUNNY    104  37  10 W12       29.63  HX  98
S.J. DEL CABO  SUNNY     88  73  62 CALM      29.75F HX  96
TIJUANA        SUNNY     77  63  61 W12       29.85F

NORTHWESTERN MEXICO

CITY           SKY/WX    TMP DP  RH WIND       PRES   REMARKS
CULIACAN       PTSUNNY   95  73  49 W13       29.72  HX 105
DURANGO        MOSUNNY   79  52  38 SW15      30.06S
GUAYMAS        MOSUNNY   91  79  66 S14       29.68  HX 107
HERMOSILLO     MOSUNNY   90  73  58 SW13      29.76  HX  98
CD. JUAREZ     MOSUNNY   72  70  94 N12       29.88
LOS MOCHIS     MOSUNNY   86  73  66 W14       29.73F HX  93
OBREGON        MOSUNNY   93  70  46 W3        29.68  HX  99

NORTHEASTERN MEXICO

CITY           SKY/WX    TMP DP  RH WIND       PRES   REMARKS
CHIHUAHUA      MOSUNNY   86  52  30 S6        29.90
MATAMOROS      PTSUNNY   88  77  70 E14       29.80  HX 100
MONCLOVA         N/A    N/A N/A N/A MISG        N/A
MONTERREY      CLOUDY    86  70  58 E7        29.76F HX  90
NUEVO LAREDO   PTSUNNY   95  70  43 S7        29.74  HX 101
PIEDRAS NEGRAS PTSUNNY   91  72  52 SE7       29.77F HX  98
REYNOSA        MOSUNNY   86  72  62 SE12      29.74  HX  92
SALTILLO       PTSUNNY   84  63  48 N14       29.96R
TORREON        PTSUNNY   93  59  31 N5        29.83F HX  92
CD. VICTORIA   MOSUNNY   88  73  62 S13       29.75  HX  96

WESTERN MEXICO

CITY           SKY/WX    TMP DP  RH WIND       PRES   REMARKS
AGUASCALIENTES MOSUNNY   77  52  41 SW9       30.11
COLIMA         DRIZZLE   73  72  94 W12       29.91R FOG
DEL BAJIO      PTSUNNY   77  55  47 E9        30.14F
GUADALAJARA    PTSUNNY   72  59  64 SE10      30.06
MANZANILLO     CLOUDY    79  73  83 E35G46    29.72S
MAZATLAN       PTSUNNY   84  75  74 W13       29.70F HX  92
P. VALLARTA    PTSUNNY   86  75  70 SW7       29.73F HX  95
URUAPAN        PTSUNNY   70  64  83 CALM      30.13F
ZACATECAS      PTSUNNY   75  52  43 SW16      30.14F

CENTRAL MEXICO

CITY           SKY/WX    TMP DP  RH WIND       PRES   REMARKS
CUERNAVACA     MOSUNNY   82  59  44 CALM      30.02F
MEXICO CITY    MOSUNNY   75  48  38 S16       30.19S
MORELIA        PTSUNNY   70  57  64 S12       30.14
POZA RICA      SUNNY     88  73  62 E12       29.79R HX  96
PUEBLA         MOSUNNY   77  61  57 S13       30.24F
QUERETARO      PTSUNNY   82  50  32 W17       30.14S
S. LUIS POTOSI PTSUNNY   82  55  39 SW6       30.06S
TAMPICO        MOSUNNY   86  75  70 E13       29.74F HX  95
TOLUCA         PTSUNNY   70  45  40 S6        30.31R

SOUTHERN MEXICO

CITY           SKY/WX    TMP DP  RH WIND       PRES   REMARKS
ACAPULCO       MOSUNNY   86  77  74 SW8       29.81F HX  97
B. DE HUATULCO MOSUNNY   84  75  74 W12       29.82  HX  92
OAXACA         MOSUNNY   81  54  39 S13       30.05F
P. ESCONDIDO   PTSUNNY   84  77  79 W21       29.93F HX  94
VERACRUZ       MOSUNNY   86  75  70 E6        29.76F HX  95
ZIHUATANEJO    MOSUNNY   86  77  74 S8        29.83S HX  97

YUCATAN PENINSULA

CITY           SKY/WX    TMP DP  RH WIND       PRES   REMARKS
CAMPECHE       SUNNY     90  75  62 E12       29.78F HX 100
CANCUN         PTSUNNY   86  73  66 E10       29.87F HX  93
CHETUMAL       MOSUNNY   86  75  70 SE12      29.82  HX  95
CD. DEL CARMEN MOSUNNY   88  79  74 NE12      29.77  HX 102
COZUMEL        MOSUNNY   82  75  78 SE10      29.87S
MERIDA         PTSUNNY   91  66  43 E9        29.82F HX  94
MINATITLAN     MOSUNNY   90  77  66 N12       29.74  HX 102
TAPACHULA      PTSUNNY   84  79  84 CALM      29.82R HX  96
TUX. GUTIERREZ CLOUDY    73  68  83 W13       29.85R
VILLAHERMOSA   MOSUNNY   91  73  55 CALM      29.78R HX 100

CENTRAL AMERICA

CITY           SKY/WX    TMP DP  RH WIND       PRES   REMARKS
BELIZE CITY    MOSUNNY   86  77  74 E8        29.83S HX  97
MANAGUA        DRIZZLE   77  73  88 E7        29.83R

CARIBBEAN

CITY           SKY/WX    TMP DP  RH WIND       PRES   REMARKS
ARUBA          PTCLDY    84  75  74 NE14      29.83R HX  92
CURACAO        PTCLDY    84  75  74 E9        29.86R HX  92
KINGSTON       PTCLDY    86  77  74 SE14      29.86S HX  97
NASSAU         MOCLDY    75  72  88 CALM      29.92F
SAN JUAN       PTCLDY    84  79  84 E9        29.93R HX  96
SANTO DOMINGO  PTCLDY    82  77  83 CALM      29.92R HX  91
ST. CROIX      PTCLDY    82  77  83 E6        29.93  HX  91
ST. KITTS      PTCLDY    84  77  79 E9        29.92S HX  94
ST. MAARTEN    PTCLDY    82  75  78 E9        29.94R
ST. THOMAS     CLEAR     82  75  78 E9        29.93

$$





U.S. Dept. of Commerce
NOAA National Weather Service
1325 East West Highway
Silver Spring, MD 20910
E-mail: w-nws.webmaster@noaa.gov
Page last modified: May 16, 2007
NATIONAL WEATHER SERVICE: for Safety, for Work, for Fun - FOR LIFE